Showing default

INTELSAT 33E, 41748

Orbit data source: Space-Track

INTELSAT 33E, 41748 is a payload satellite owned by Intelsat SA (US) (US) in GEO that was launched on Wed, 24 Aug 2016 UTC via an ARIANE 5ECA launch vehicle from the French Guiana (FRGUI). Payload-class satellites include a variety of spacecraft equipped with specific instruments for various scientific and technological missions. These include communications satellites like Starlink; space stations such as the ISS; scientific satellites like the Hubble; Earth observation satellites from companies like Planet Labs, Umbra, and HawkEye 360; GPS; miniature CubeSats for education and research; and military/defense satellites.

Not visible in the next 10 days
Identifier
41748, 2016-053B
Orbit
GEO
Country
Flag of UnknownUnknown / ITSO
Related business
Manufacturer
Boeing/ES
Mission
Non-operational Commercial Communications
Bus & Motor
BSS-702MP, LEROS-2B
Mass
6,552 kg wet, ~2,946 kg dry
Launch date (UTC)
2016-08-24 (9 years ago)
Launch vehicle
ARIANE 5ECA
Launch site
French Guiana (FRGUI)
Object type
Payload
Rocket body
Debris
Shape & HBR
Box + 2 Pan, 22.0 m
Radar Cross Section
59.953 m², Large (>1 m²)

Expand to show TLE details & history
Last TLE update: 21 hours ago

TLE from 21 hours ago
0 INTELSAT 33E
1 41748U 16053B   25347.03795007 -.00000343  00000-0  00000-0 0  9992
2 41748   1.0939  87.0869 0025179 184.2052 298.2789  1.00201501 34385
Epoch: 2025-12-13T00:54Z
TLE epoch observation values (Epoch: 2025-12-13T00:54:38.886Z)
Latitude
0.91066°
Longitude
113.68228°
Altitude
35,755.227 km
Speed
3.078 km/s
True Right ascension
13h 57m 15s
True Declination
0° 54' 35"
Sunlit
Object was in daylight at epoch
Visualization orbit readout
Latitude
Unknown
Longitude
Unknown
Altitude
Unknown
Speed
Unknown
Apparent Right ascension
Unknown
Apparent Declination
Unknown
Sunlit
N/A
Visualization observer readout
Local Sidereal Time
20:08:18
Azimuth
Unknown
Elevation
Unknown
Doppler factor
Unknown
Orbital elements
Apogee altitude
35,913.598 km
Perigee altitude
35,701.16 km
Semi-major axis
42,185.516 km
Eccentricity
0.00252
Inclination
1.0939°
RAAN
87.0869°
Arg. of periapsis
184.2052°
True anomaly
298.02443°
Mean anomaly
298.2789°
Eccentric anomaly
298.1517°
Mean motion
0.25049 °/min
Orbital period
1,437.16 mins
BSTAR
0
Loading maneuver chart data...
Computing Atmospheric mass density...
Loading historical data...
Loading historical data...
Loading historical data...
Loading historical data...
Loading historical data...
Loading historical data...
Loading historical data...

Documentation

Showing up to 5 results
|